OneWeb SL0262

operational
NORAD ID: 48980 Int'l Des: 2021-060 Owner: ONEWEBN Country: UK Constellation: oneweb
LEOCIRCULARPOLARONEWEB_TYPE

OneWeb SL0262について

説明を読み込み中...

リアルタイム位置

3D地球を読み込み中...

次回通過

高度履歴

Altitude vs Time

uPlot chart will show altitude changes over time

軌道要素

1 48980U 21060P 25305.42853607 .00000107 00000-0 24640-3 0 9995
2 48980 87.8989 274.1338 0002276 85.1039 275.0352 13.16595971209654
Epoch: Nov 1, 2025 • Age: 22 hours

現在のステータス

高度 1220.5 km
速度 7.24 km/s
衛星直下点 -55.29°S, 110.71°E
打ち上げ日 Jul 1, 2021
運用期間 4.3 years
タイプ internet

技術仕様

分類 Payload
質量 148.00 kg
乾燥質量 140.00 kg
総質量 148.00 kg
長さ 1.30 m
直径 1.00 m
スパン 5.00 m
形状 Trapezoid+2 pan
製造者 ONEWUS
バスタイプ ARROW
フェーズステータス In Orbit
所有者/国 ONEWEBN/UK

大規模コンステレーション

Loading constellations...